KN6KS Weather Reports


Display with metric or nautical units.
time (UTC)temp
F
wind
direction
speed
MPH
gust
MPH
rain 1hr
in
rain 24hr
in
rain mn
in
humidity
%
barometer
mb
20260902100000 62 270 6.0 7.0 0.00 0.00 0.00 32 1015.2
20260902095454 63 266 5.0 6.0 0.00 0.00 0.00 31 1015.3
20260902094954 64 279 4.0 5.0 0.00 0.00 0.00 30 1015.4
20260902094449 63 320 5.0 6.0 0.00 0.00 0.00 29 1014.9
20260902093944 63 264 4.0 6.0 0.00 0.00 0.00 30 1015.4
20260902093439 63 9 3.0 5.0 0.00 0.00 0.00 31 1014.8
20260902092937 63 307 4.0 5.0 0.00 0.00 0.00 31 1015.3
20260902092433 63 249 0.0 0.0 0.00 0.00 0.00 32 1015.2
20260902091933 63 291 3.0 3.0 0.00 0.00 0.00 31 1015.3
20260902091429 63 307 3.0 7.0 0.00 0.00 0.00 33 1015.3
20260902090926 64 336 4.0 5.0 0.00 0.00 0.00 32 1015.3
20260902090426 64 236 4.0 5.0 0.00 0.00 0.00 32 1015.5
20260902085924 64 273 5.0 7.0 0.00 0.00 0.00 33 1015.2
20260902085419 64 286 2.0 2.0 0.00 0.00 0.00 33 1015.3
20260902084914 64 232 1.0 2.0 0.00 0.00 0.00 31 1015.4
20260902084412 65 230 4.0 6.0 0.00 0.00 0.00 30 1015.4
20260902083907 65 246 5.0 6.0 0.00 0.00 0.00 31 1015.4
20260902083406 64 296 4.0 5.0 0.00 0.00 0.00 30 1015.5
20260902082901 64 248 3.0 3.0 0.00 0.00 0.00 34 1015.3
20260902082357 64 270 4.0 5.0 0.00 0.00 0.00 37 1015.6
20260902081854 64 249 5.0 6.0 0.00 0.00 0.00 37 1015.8
20260902081349 64 267 3.0 3.0 0.00 0.00 0.00 37 1015.5
20260902080844 65 261 3.0 3.0 0.00 0.00 0.00 36 1015.5
20260902080341 65 277 4.0 5.0 0.00 0.00 0.00 35 1015.3
20260902075840 66 299 5.0 5.0 0.00 0.00 0.00 35 1015.3
20260902075336 65 317 4.0 5.0 0.00 0.00 0.00 37 1015.3
20260902074832 65 270 2.0 3.0 0.00 0.00 0.00 34 1015.5
20260902074328 65 340 3.0 5.0 0.00 0.00 0.00 37 1015.3
20260902073828 64 15 6.0 8.0 0.00 0.00 0.00 36 1015.4
20260902073324 64 281 0.0 0.0 0.00 0.00 0.00 37 1015.3
20260902072820 65 247 0.0 0.0 0.00 0.00 0.00 36 1015.3
20260902072315 64 317 0.0 0.0 0.00 0.00 0.00 37 1015.4
20260902071811 65 272 0.0 0.0 0.00 0.00 0.00 38 1015.5
20260902071306 65 267 0.0 0.0 0.00 0.00 0.00 37 1015.3
20260902070802 65 267 4.0 5.0 0.00 0.00 0.00 35 1015.5
20260902070302 64 284 3.0 5.0 0.00 0.00 0.00 41 1015.3
20260902065800 64 280 3.0 3.0 0.00 0.00 0.00 43 1015.3
20260902065250 64 251 1.0 2.0 0.00 0.00 0.00 43 1015.2
20260902064740 65 270 2.0 2.0 0.00 0.00 0.00 42 1015.4
20260902064236 64 254 2.0 2.0 0.00 0.00 0.00 43 1015.3
20260902063732 64 276 3.0 3.0 0.00 0.00 0.00 43 1014.9
20260902063232 63 251 0.0 0.0 0.00 0.00 0.00 41 1015.0
20260902062732 64 246 0.0 0.0 0.00 0.00 0.00 40 1015.0
20260902062226 64 120 2.0 2.0 0.00 0.00 0.00 41 1015.2
20260902061725 65 10 3.0 5.0 0.00 0.00 0.00 39 1015.0
20260902061221 64 267 1.0 1.0 0.00 0.00 0.00 38 1015.3
20260902060718 64 245 0.0 0.0 0.00 0.00 0.00 39 1015.3
20260902060213 65 252 3.0 3.0 0.00 0.00 0.00 39 1015.0
20260902055709 65 264 1.0 1.0 0.00 0.00 0.00 38 1015.4
20260902055205 65 279 2.0 2.0 0.00 0.00 0.00 36 1015.0
20260902054700 66 276 3.0 3.0 0.00 0.00 0.00 32 1015.2
20260902054155 66 257 1.0 1.0 0.00 0.00 0.00 34 1015.3
20260902053651 65 351 4.0 6.0 0.00 0.00 0.00 36 1015.3
20260902053150 66 246 3.0 3.0 0.00 0.00 0.00 34 1015.3
20260902052650 67 300 3.0 3.0 0.00 0.00 0.00 32 1015.0
20260902052145 67 0 0.0 0.0 0.00 0.00 0.00 29 1015.3
20260902051644 66 5 3.0 5.0 0.00 0.00 0.00 29 1015.2
20260902051139 67 53 2.0 2.0 0.00 0.00 0.00 32 1014.9
20260902050633 67 324 4.0 6.0 0.00 0.00 0.00 30 1015.0
20260902050129 68 77 2.0 2.0 0.00 0.00 0.00 27 1014.8
20260902045624 69 68 3.0 3.0 0.00 0.00 0.00 25 1014.7
20260902045120 71 219 1.0 1.0 0.00 0.00 0.00 21 1014.6
20260902044614 71 199 3.0 3.0 0.00 0.00 0.00 21 1014.6
20260902044110 71 231 5.0 7.0 0.00 0.00 0.00 20 1014.3
20260902043605 71 199 10.0 11.0 0.00 0.00 0.00 20 1014.3
20260902043100 72 253 8.0 10.0 0.00 0.00 0.00 19 1014.2
20260902042600 72 257 10.0 11.0 0.00 0.00 0.00 17 1013.9
20260902042056 73 244 14.0 17.0 0.00 0.00 0.00 17 1013.8
20260902041555 72 219 12.0 14.0 0.00 0.00 0.00 17 1014.0
20260902041050 72 250 14.0 18.0 0.00 0.00 0.00 18 1014.0
20260902040549 72 251 13.0 21.0 0.00 0.00 0.00 18 1013.8
20260902040044 72 272 17.0 21.0 0.00 0.00 0.00 17 1013.8
20260902035543 72 224 13.0 16.0 0.00 0.00 0.00 18 1013.4
20260902035038 72 248 9.0 11.0 0.00 0.00 0.00 19 1013.8
20260902034538 72 244 16.0 21.0 0.00 0.00 0.00 20 1013.5
20260902034037 72 223 13.0 15.0 0.00 0.00 0.00 20 1013.4
20260902033536 73 249 18.0 20.0 0.00 0.00 0.00 20 1013.2
20260902033031 72 264 16.0 21.0 0.00 0.00 0.00 21 1013.3
20260902032530 73 252 14.0 16.0 0.00 0.00 0.00 21 1013.3
20260902032025 73 256 13.0 17.0 0.00 0.00 0.00 21 1013.0
20260902031520 73 235 15.0 20.0 0.00 0.00 0.00 20 1012.9
20260902031016 73 223 19.0 23.0 0.00 0.00 0.00 21 1012.9
20260902030511 73 251 12.0 16.0 0.00 0.00 0.00 23 1012.9
20260902030010 73 237 18.0 20.0 0.00 0.00 0.00 24 1013.1
20260902025505 74 212 19.0 22.0 0.00 0.00 0.00 24 1013.0
20260902025000 74 250 13.0 15.0 0.00 0.00 0.00 22 1012.8
20260902024456 74 237 16.0 21.0 0.00 0.00 0.00 22 1012.7
20260902023950 74 263 21.0 24.0 0.00 0.00 0.00 22 1012.6
20260902023446 74 224 25.0 26.0 0.00 0.00 0.00 23 1012.5
20260902022945 74 244 20.0 22.0 0.00 0.00 0.00 23 1012.4
20260902022440 75 290 15.0 18.0 0.00 0.00 0.00 23 1012.4
20260902021936 75 228 20.0 26.0 0.00 0.00 0.00 23 1012.4
20260902021431 75 239 18.0 23.0 0.00 0.00 0.00 22 1012.5
20260902020926 75 247 21.0 26.0 0.00 0.00 0.00 22 1012.1
20260902020423 76 218 21.0 23.0 0.00 0.00 0.00 22 1012.1
20260902015918 76 252 15.0 21.0 0.00 0.00 0.00 23 1012.4
20260902015413 76 245 21.0 22.0 0.00 0.00 0.00 23 1012.2
20260902014909 76 248 18.0 25.0 0.00 0.00 0.00 22 1012.5
20260902014406 77 222 22.0 25.0 0.00 0.00 0.00 22 1012.2